Content
SEND FEEDBACK

Daily
Averages
Monthly
Summary
United States of America

ROLLA, MISSOURI


Home > North America > United States > Missouri
Elevation: 1095 feet     Latitude: 38 07N     Longitude: 091 46W

WEATHER
 
SELECT A DAY
Number of Records: 206,669;   Date Range: 1/1/95 - 12/21/14
 
SHARE

PRINT THIS DATA

[ ← Previous Day ]
WEATHER ALMANAC - JANUARY 3, 2014
[ Next Day → ]
[ °C ]   °F
Weather ElementAverageHighLow
Temperature18 °F30.9 °F (2:53 pm)1.9 °F (1:53 am)
Dewpoint7.6 °F15.1 °F (11:53 pm)-2.9 °F (3:53 am)
Humidity64.8 %84 % (4:53 am)47 % (3:53 pm)
Barometer30.27 in30.49 in (1:53 am)29.98 in (11:53 pm)
Wind Speed14.1 mph23 mph (10:53 pm)
Wind Gust31.1 mph (6:53 pm)
Weather ElementAverage
Visibility10 mi
Wind DirectionSSE (167 °)

Weather ElementTotal
Precipitation---
Heating Degree Days48.6 (Base 65)
Averaged from 23 records on January 3, 2014
WEATHER CONDITIONS BREAKOUT
WIND DIRECTION BREAKOUT
WEATHER BY HOUR - JANUARY 3, 2014
[ °C ]   °F
Local TimeTemperatureDewpointHumidityBarometerVisibilityWind DirectionWind SpeedGust SpeedPrecipitationEventsConditions
1:53 AM1.9 °F-2.0 °F83 %30.49 in10.0 miCalmClear
2:53 AM1.9 °F-2.0 °F83 %30.49 in10.0 miWSW (240°)3.5 mphClear
3:53 AM3.0 °F-2.9 °F76 %30.48 in10.0 miSSW (200°)4.6 mphClear
4:53 AM3.0 °F-0.9 °F84 %30.46 in10.0 miSSE (160°)4.6 mphClear
5:53 AM3.9 °F-2.0 °F76 %30.47 in10.0 miSouth (180°)5.8 mphClear
6:53 AM3.9 °F-2.0 °F76 %30.47 in10.0 miSSE (150°)6.9 mphClear
7:53 AM6.1 °F-0.9 °F73 %30.46 in10.0 miSSE (150°)10.4 mphClear
8:53 AM10.9 °F3.9 °F73 %30.44 in10.0 miSSE (160°)10.4 mphClear
9:53 AM16.0 °F5.0 °F62 %30.43 in10.0 miSouth (190°)13.8 mphClear
10:53 AM19.9 °F8.1 °F60 %30.38 in10.0 miSSE (160°)13.8 mphClear
11:53 AM24.1 °F10.0 °F55 %30.32 in10.0 miSouth (170°)16.1 mphClear
12:53 PM27.0 °F12.0 °F53 %30.26 in10.0 miSouth (180°)12.7 mphClear
1:53 PM28.9 °F12.9 °F51 %30.23 in10.0 miSouth (190°)18.4 mphClear
2:53 PM30.9 °F14.0 °F50 %30.18 in10.0 miSouth (180°)17.3 mph25.3 mphClear
3:53 PM30.9 °F12.9 °F47 %30.17 in10.0 miSouth (170°)19.6 mphClear
4:53 PM28.0 °F12.9 °F53 %30.14 in10.0 miSSE (160°)19.6 mphClear
5:53 PM26.1 °F12.0 °F55 %30.12 in10.0 miSSE (160°)19.6 mph26.5 mphClear
6:53 PM25.0 °F12.9 °F60 %30.09 in10.0 miSouth (170°)20.7 mph31.1 mphClear
7:54 PM24.1 °F12.9 °F62 %30.06 in10.0 miSouth (170°)19.6 mph31.1 mph
8:53 PM24.1 °F14.0 °F65 %30.02 in10.0 miSouth (170°)20.7 mph28.8 mphClear
9:53 PM24.1 °F14.0 °F65 %30.01 in10.0 miSouth (170°)20.7 mph27.6 mphClear
10:53 PM25.0 °F14.0 °F63 %30.00 in10.0 miSouth (180°)23.0 mph29.9 mphClear
11:53 PM25.0 °F15.1 °F66 %29.98 in10.0 miSouth (180°)23.0 mph28.8 mphClear
Hourly data recorded from KVIH, located miles away from Rolla, Missouri







STORIES FROM OUR PARTNERS